Regional Weather Roundup
Issued by NWS

Home | Current Version | Previous Version | Graphics & Text | Print | Product List | Glossary On
Versions: 1 2 3 4 5 6 7 8 9 10 11 12 13 14 15 16 17 18 19 20 21 22 23 24 25 26 27 28 29 30 31 32 33 34 35 36 37 38 39 40 41 42 43 44 45 46 47 48 49 50
000
ASUS45 KSLC 191010
RWRUT

UTAH REGIONAL WEATHER ROUNDUP
NATIONAL WEATHER SERVICE SALT LAKE CITY UT
400 AM MDT THU OCT 19 2017

UTZ001>011-023>025-191100-

NORTHERN UTAH

CITY           SKY/WX    TMP DP  RH WIND       PRES   REMARKS
BRIGHAM CITY   PTCLDY    35  27  74 CALM      30.03F
HILL AFB       CLEAR     46  16  29 E20G26    30.02F
LOGAN          PTCLDY    31  22  69 CALM      30.04F
OGDEN          CLEAR     45  19  35 S9        30.02F
SALT LAKE CITY PTCLDY    45  29  53 SE8       30.02F
TOOELE VALLEY  PTCLDY    39  23  52 S5        30.03F
WENDOVER       MOCLDY    36  20  52 NE6       30.02F WCI  31
WEST JORDAN    PTCLDY    45  25  44 SW10      30.03F

$$

UTZ011>015-024>027-191100-

CENTRAL/NORTHEAST UTAH

CITY           SKY/WX    TMP DP  RH WIND       PRES   REMARKS
PROVO AIRPORT  NOT AVBL
MOAB/CANYONLAN CLOUDY    47  18  31 W3        30.06F
DELTA          MOCLDY    41  28  60 CALM      30.04F
PRICE          CLOUDY    49  15  25 CALM      30.11F
ROOSEVELT      CLOUDY    41  27  56 W3        30.13F
VERNAL         CLOUDY    39  20  46 W5        30.11F

$$

UTZ013>016-019>022-027-191100-

SOUTHERN UTAH

CITY           SKY/WX    TMP DP  RH WIND       PRES   REMARKS
BRYCE CANYON   CLOUDY    43  25  49 SW5       30.20F
CEDAR CITY     CLOUDY    44  26  49 CALM      30.08S
MILFORD        CLOUDY    41  19  41 CALM      30.05F
ST GEORGE      LGT RAIN  59  34  39 E6        29.97R
HANKSVILLE     CLOUDY    45  21  39 CALM      30.09S
BLANDING         N/A     47  19  31 N5        30.19F

$$

REGIONAL REPORTS     COLORADO/ARIZONA

CITY           SKY/WX    TMP DP  RH WIND       PRES   REMARKS
CRAIG, CO      CLOUDY    24  17  74 CALM      30.18F
GRAND JUNCTION CLOUDY    47  17  30 SE10      30.09F
RIFLE, CO      CLOUDY    36  19  50 E3        30.16F
MONTROSE, CO   CLOUDY    38  21  50 SE7       30.17F WCI  33
CORTEZ, CO     CLOUDY    36  26  67 CALM      30.15F
COLORADO CITY  PTSUNNY   54  37  54 SE8G17    30.09S
PAGE, AZ       PTCLDY    58  27  30 CALM      30.03S
GRAND CANYON   PTCLDY    37  24  59 CALM      30.17F
KINGMAN, AZ    CLEAR     54  30  40 CALM      29.96F
FLAGSTAFF, AZ  PTCLDY    41  28  60 CALM      30.19F

$$

REGIONAL REPORTS    NEVADA/IDAHO/WYOMING

CITY           SKY/WX    TMP DP  RH WIND       PRES   REMARKS
LAS VEGAS, NV  MOCLDY    69  23  17 SW3       29.88F
ELY, NY        MOCLDY    37   6  27 S12       30.09F WCI  29
ELKO, NV       CLOUDY    30  15  53 E5        30.03F WCI  25
POCATELLO, ID  CLEAR     34  27  75 N7        30.00S WCI  28
BURLEY, ID     PTCLDY    47  19  33 CALM      29.95S
FORT BRIDGER,    N/A     44   9  24 CALM      30.17F
EVANSTON, WY   CLOUDY    42  12  29 CALM      30.15F
ROCK SPRINGS,  CLOUDY    37  10  32 NE5       30.14F WCI  33

$$



USA.gov is the U.S. government's official web portal to all federal, state and local government web resources and services.